Home > Weather > Wichita Falls > Past weeks

Flag for U.S.A. Weather for the Past 2 Weeks in Wichita Falls, Texas, U.S.A.

Now
37 °F

Clear.


Feels Like: 30 °F
Forecast: 35 / 61 °F
Wind: 10 mph from Northeast

Location: Wichita Falls - Sheppard Air Force Base

Current Time: Feb 13, 2016 at 1:20:49 AM

Latest Report: Feb 13, 2016 at 12:52 AM


Visibility: 10 mi

Pressure: 30.40 "Hg

Humidity: 79%

Dew point: 31 °F

Location of Wichita FallsLocation

Historic Weather in Wichita Falls — Graph

°F

Wichita Falls Temperature Yesterday

Maximum temperature yesterday: 68 °F (at 3:52 PM)
Minimum temperature yesterday: 34 °F (at 5:52 AM)
Average temperature yesterday: 49 °F

High & Low Weather Summary for the Past Weeks

 TemperatureHumidityPressure
High81 °F (Jan 30, 3:52 PM)89% (Feb 7, 7:52 AM)30.50 "Hg (Feb 7, 7:52 AM)
Low25 °F (Feb 4, 5:52 AM)11% (Feb 8, 4:52 PM)29.46 "Hg (Feb 1, 8:52 PM)
Average48 °F50%30.09 "Hg
* Reported Jan 28 11:52 PM — Feb 12 11:52 PM, Wichita Falls, Weather by CustomWeather, © 2016

Note: Actual official high and low records may vary slightly from our data, if they occured in-between our weather recording intervals... More about our weather records

Advertising

Wichita Falls Weather History for the Previous 24 Hours

 ConditionsComfort  
Time TempWeatherWind HumidityBarometerVisibility
11:52 PM
Fri, Feb 12
37 °FClear.8 mph86%30.39 "Hg10 mi
10:52 PM38 °FClear.7 mph83%30.38 "Hg10 mi
9:52 PM42 °FClear.7 mph76%30.38 "Hg10 mi
8:52 PM45 °FClear.8 mph71%30.36 "Hg10 mi
7:52 PM50 °FClear.7 mph57%30.34 "Hg10 mi
6:52 PM56 °FClear.6 mph49%30.31 "Hg10 mi
5:52 PM61 °FSunny.7 mph42%30.30 "Hg10 mi
4:52 PM67 °FSunny.13 mph31%30.28 "Hg10 mi
3:52 PM68 °FSunny.13 mph30%30.27 "Hg10 mi
2:52 PM67 °FSunny.8 mph32%30.27 "Hg10 mi
1:52 PM66 °FSunny.3 mph33%30.29 "Hg10 mi
12:52 PM64 °FSunny.8 mph35%30.32 "Hg10 mi
11:52 AM61 °FSunny.7 mph36%30.33 "Hg10 mi
10:52 AM56 °FSunny.6 mph46%30.33 "Hg10 mi
9:52 AM50 °FSunny.10 mph57%30.31 "Hg10 mi
8:52 AM44 °FSunny.8 mph71%30.30 "Hg10 mi
7:52 AM38 °FSunny.6 mph76%30.27 "Hg10 mi
6:52 AM37 °FClear.8 mph76%30.26 "Hg10 mi
5:52 AM34 °FClear.10 mph85%30.23 "Hg10 mi
4:52 AM37 °FClear.7 mph79%30.20 "Hg10 mi
3:52 AM39 °FClear.8 mph73%30.17 "Hg10 mi
2:52 AM40 °FClear.6 mph73%30.16 "Hg10 mi
1:52 AM40 °FClear.8 mph73%30.15 "Hg10 mi
Weather by CustomWeather, © 2016

See weather overviewHow to use our weather pages